Flag for Canada Weather past 2 weeks in Laval, Quebec, Canada

Now
41 °F

Passing clouds.


Feels Like: 39 °F
Forecast: 41 / 62 °F
Wind: 3 mph from West

Location: Montreal / Mirabel

Current Time: Sep 15, 2014 at 1:13:02 AM

Latest Report: Sep 15, 2014 at 12:00 AM


Visibility: 25 mi

Pressure: 30.25 "Hg

Humidity: 93%

Dew point: 39 °F

Location of LavalLocation

Historic Weather in Laval — Graph

°F

Laval temperature yesterday

Maximum temperature yesterday: 52 °F (at 4:00 PM)
Minimum temperature yesterday: 41 °F (at 6:00 AM)
Average temperature yesterday: 46 °F

Past Weeks' High & Low Weather Summary

 TemperatureHumidityPressure
High84 °F (Sep 5, 3:00 PM)100% (Aug 31, 3:00 AM)30.37 "Hg (Aug 31, 3:00 AM)
Low41 °F (Sep 14, 6:00 AM)36% (Sep 9, 2:00 PM)29.51 "Hg (Sep 11, 12:00 PM)
Average62 °F81%30.02 "Hg
* Reported Midnight between Aug 30 and Aug 31 — Midnight between Sep 14 and Sep 15, Laval, Weather by CustomWeather, © 2014

Note: Actual official high and low records may vary slightly from our data, if they occured in-between our weather recording intervals... More about our weather records

Advertising

Laval weather history for previous 24 hours

 ConditionsComfort  
Time TempWeatherWind HumidityBarometerVisibility
12:00 AM
Sep 15
41 °FPassing clouds.3 mph93%30.25 "Hg25 mi
11:00 PM
Sep 14
43 °FPassing clouds.5 mph93%30.27 "Hg25 mi
10:00 PM43 °FPassing clouds.2 mph93%30.26 "Hg25 mi
9:00 PM46 °FPassing clouds.3 mph82%30.27 "Hg25 mi
8:00 PM48 °FPartly sunny.3 mph76%30.28 "Hg25 mi
7:00 PM48 °FPartly sunny.5 mph76%30.28 "Hg35 mi
6:00 PM50 °FPartly sunny.5 mph71%30.28 "Hg45 mi
5:00 PM50 °FOvercast.6 mph71%30.29 "Hg45 mi
4:00 PM52 °FMore clouds than sun.5 mph62%30.29 "Hg45 mi
3:00 PM50 °FOvercast.7 mph67%30.30 "Hg45 mi
2:00 PM50 °FOvercast.2 mph67%30.31 "Hg45 mi
1:00 PM50 °FOvercast.3 mph67%30.31 "Hg45 mi
12:00 PM48 °FOvercast.5 mph71%30.32 "Hg45 mi
11:00 AM48 °FOvercast.3 mph71%30.34 "Hg45 mi
10:00 AM48 °FPartly sunny.2 mph71%30.34 "Hg45 mi
9:00 AM46 °FPartly sunny.3 mph76%30.33 "Hg45 mi
8:00 AM45 °FPartly sunny.5 mph87%30.33 "Hg25 mi
7:00 AM41 °FPassing clouds.2 mph93%30.31 "Hg45 mi
6:00 AM41 °FPassing clouds.3 mph93%30.28 "Hg25 mi
5:00 AM43 °FPassing clouds.3 mph87%30.26 "Hg25 mi
4:00 AM45 °FPassing clouds.9 mph81%30.24 "Hg25 mi
3:00 AM43 °FPassing clouds.5 mph87%30.23 "Hg25 mi
2:00 AM45 °FPassing clouds.7 mph81%30.21 "Hg25 mi
1:00 AM45 °FPassing clouds.9 mph76%30.20 "Hg25 mi
Weather by CustomWeather, © 2014

See weather overviewHow to use our weather pages